EW8215 Weather Reports


Display with metric or nautical units.
time (UTC)temp
F
wind
direction
speed
MPH
gust
MPH
rain 1hr
in
rain 24hr
in
rain mn
in
humidity
%
barometer
mb
20260505001459 79 188 4.0 10.0 0.00 0.00 0.00 67 1008.7
20260505000955 79 179 7.0 9.0 0.00 0.00 0.00 66 1008.7
20260505000454 80 155 10.0 12.0 0.00 0.00 0.00 65 1009.0
20260504235950 80 188 4.0 7.0 0.00 0.00 0.00 66 1009.0
20260504235448 80 162 3.0 5.0 0.00 0.00 0.00 65 1009.0
20260504234944 80 143 4.0 5.0 0.00 0.00 0.00 65 1009.2
20260504234441 80 131 6.0 9.0 0.00 0.00 0.00 65 1009.3
20260504233938 80 224 7.0 10.0 0.00 0.00 0.00 64 1009.2
20260504233433 80 122 3.0 3.0 0.00 0.00 0.00 64 1009.2
20260504232931 80 217 6.0 9.0 0.00 0.00 0.00 64 1009.4
20260504232428 81 189 9.0 15.0 0.00 0.00 0.00 64 1009.4
20260504231925 81 197 6.0 7.0 0.00 0.00 0.00 63 1009.2
20260504231421 80 173 6.0 9.0 0.00 0.00 0.00 64 1009.2
20260504230917 80 196 11.0 14.0 0.00 0.00 0.00 63 1009.4
20260504230415 80 209 8.0 10.0 0.00 0.00 0.00 64 1009.2
20260504225913 81 228 10.0 15.0 0.00 0.00 0.00 62 1009.4
20260504225410 81 180 4.0 5.0 0.00 0.00 0.00 63 1009.4
20260504224907 81 187 8.0 10.0 0.00 0.00 0.00 62 1009.6
20260504224403 81 161 3.0 3.0 0.00 0.00 0.00 65 1009.5
20260504223901 81 181 7.0 9.0 0.00 0.00 0.00 64 1009.6
20260504223356 81 193 7.0 10.0 0.00 0.00 0.00 63 1009.9
20260504222852 81 215 7.0 9.0 0.00 0.00 0.00 62 1009.8
20260504222349 81 180 7.0 12.0 0.00 0.00 0.00 62 1009.8
20260504221848 82 154 6.0 7.0 0.00 0.00 0.00 61 1009.7
20260504221344 81 203 5.0 5.0 0.00 0.00 0.00 63 1009.8
20260504220842 82 221 5.0 5.0 0.00 0.00 0.00 62 1009.8
20260504220338 82 186 9.0 12.0 0.00 0.00 0.00 61 1009.8
20260504215835 81 165 3.0 3.0 0.00 0.00 0.00 63 1009.9
20260504215331 82 204 6.0 9.0 0.00 0.00 0.00 61 1009.8
20260504214828 81 197 10.0 14.0 0.00 0.00 0.00 61 1009.8
20260504214325 81 147 9.0 14.0 0.00 0.00 0.00 60 1009.9
20260504213821 81 223 10.0 14.0 0.00 0.00 0.00 62 1010.2
20260504213317 81 220 7.0 10.0 0.00 0.00 0.00 62 1010.3
20260504212815 82 124 8.0 15.0 0.00 0.00 0.00 63 1010.4
20260504212311 82 256 6.0 10.0 0.00 0.00 0.00 60 1010.5
20260504211809 80 158 7.0 9.0 0.00 0.00 0.00 62 1010.5
20260504211304 80 135 9.0 10.0 0.00 0.00 0.00 62 1010.5
20260504210802 81 163 2.0 3.0 0.00 0.00 0.00 64 1010.7
20260504210259 81 202 7.0 10.0 0.00 0.00 0.00 61 1010.8
20260504205756 81 164 2.0 3.0 0.00 0.00 0.00 64 1010.9
20260504205254 81 183 5.0 5.0 0.00 0.00 0.00 62 1011.0
20260504204752 81 200 5.0 7.0 0.00 0.00 0.00 63 1011.2
20260504204250 81 188 7.0 10.0 0.00 0.00 0.00 63 1011.4
20260504203749 81 180 6.0 9.0 0.00 0.00 0.00 64 1011.3
20260504203246 81 134 9.0 14.0 0.00 0.00 0.00 61 1011.5
20260504202741 81 183 4.0 7.0 0.00 0.00 0.00 64 1011.6
20260504202239 81 170 6.0 12.0 0.00 0.00 0.00 61 1011.8
20260504201736 80 172 9.0 12.0 0.00 0.00 0.00 63 1011.8
20260504201233 80 209 7.0 14.0 0.00 0.00 0.00 64 1011.8
20260504200731 79 253 6.0 9.0 0.00 0.00 0.00 64 1012.1
20260504200226 80 179 8.0 10.0 0.00 0.00 0.00 62 1012.1
20260504195723 80 190 6.0 9.0 0.00 0.00 0.00 64 1012.4
20260504195219 79 165 6.0 7.0 0.00 0.00 0.00 65 1012.4
20260504194716 79 208 4.0 5.0 0.00 0.00 0.00 65 1012.4
20260504194212 78 204 5.0 7.0 0.00 0.00 0.00 65 1012.5
20260504193709 79 172 3.0 5.0 0.00 0.00 0.00 67 1012.6
20260504193206 79 147 6.0 9.0 0.00 0.00 0.00 64 1012.8
20260504192704 81 241 7.0 9.0 0.00 0.00 0.00 63 1012.6
20260504192202 80 274 7.0 10.0 0.00 0.00 0.00 63 1012.9
20260504191701 80 228 3.0 3.0 0.00 0.00 0.00 65 1012.9
20260504191156 78 184 5.0 7.0 0.00 0.00 0.00 65 1013.0
20260504190652 78 163 0.0 2.0 0.00 0.00 0.00 64 1013.1
20260504190149 79 214 8.0 14.0 0.00 0.00 0.00 64 1013.0
20260504185645 80 180 10.0 14.0 0.00 0.00 0.00 64 1013.0
20260504185142 79 262 7.0 12.0 0.00 0.00 0.00 65 1013.2
20260504184638 78 204 7.0 12.0 0.00 0.00 0.00 65 1013.3
20260504184132 79 213 12.0 14.0 0.00 0.00 0.00 63 1013.2
20260504183630 79 237 14.0 17.0 0.00 0.00 0.00 63 1013.3
20260504183127 78 221 6.0 10.0 0.00 0.00 0.00 65 1013.2
20260504182625 77 245 9.0 12.0 0.00 0.00 0.00 65 1013.3
20260504182122 77 230 8.0 14.0 0.00 0.00 0.00 66 1013.7
20260504181620 77 244 10.0 12.0 0.00 0.00 0.00 65 1013.6
20260504181117 79 255 8.0 15.0 0.00 0.00 0.00 63 1013.7
20260504180616 77 215 5.0 5.0 0.00 0.00 0.00 69 1013.9
20260504180115 78 240 12.0 15.0 0.00 0.00 0.00 64 1013.8
20260504175611 78 217 11.0 15.0 0.00 0.00 0.00 65 1014.0
20260504175108 78 177 7.0 10.0 0.00 0.00 0.00 65 1014.2
20260504174606 77 188 6.0 7.0 0.00 0.00 0.00 68 1014.1
20260504174102 77 173 6.0 10.0 0.00 0.00 0.00 68 1014.2
20260504173559 76 193 9.0 10.0 0.00 0.00 0.00 67 1014.3
20260504173057 77 208 5.0 9.0 0.00 0.00 0.00 67 1014.4
20260504172553 75 217 8.0 12.0 0.00 0.00 0.00 68 1014.2
20260504172050 75 208 8.0 10.0 0.00 0.00 0.00 68 1014.4
20260504171546 75 225 6.0 7.0 0.00 0.00 0.00 68 1014.4
20260504171043 76 224 13.0 15.0 0.00 0.00 0.00 67 1014.4
20260504170539 76 217 14.0 19.0 0.00 0.00 0.00 66 1014.4
20260504150923 72 205 8.0 12.0 0.00 0.00 0.00 68 1015.6
20260504150420 71 179 3.0 5.0 0.00 0.00 0.00 70 1015.5
20260504140846 68 170 6.0 10.0 0.00 0.00 0.00 72 1015.8
20260504140342 68 201 5.0 7.0 0.00 0.00 0.00 72 1015.5
20260504130811 62 178 1.0 3.0 0.00 0.00 0.00 81 1015.5
20260504130307 62 145 2.0 3.0 0.00 0.00 0.00 82 1015.5
20260504120231 58 147 1.0 2.0 0.00 0.00 0.00 86 1015.0
20260504110658 59 157 2.0 3.0 0.00 0.00 0.00 85 1015.0
20260504110154 59 159 1.0 2.0 0.00 0.00 0.00 85 1015.0
20260504100119 60 174 4.0 7.0 0.00 0.00 0.00 83 1015.6
20260504081512 61 159 2.0 2.0 0.00 0.00 0.00 82 1015.9
20260504081007 61 166 1.0 2.0 0.00 0.00 0.00 82 1016.0
20260504080504 61 159 2.0 3.0 0.00 0.00 0.00 82 1016.0
20260504050317 64 153 2.0 3.0 0.00 0.00 0.00 72 1017.8
20260504045814 64 145 4.0 5.0 0.00 0.00 0.00 72 1017.9
20260504045314 64 143 6.0 9.0 0.00 0.00 0.00 72 1018.0
20260504044812 64 154 4.0 9.0 0.00 0.00 0.00 72 1017.9
20260504044309 64 175 4.0 5.0 0.00 0.00 0.00 71 1017.9
20260504043806 64 166 5.0 7.0 0.00 0.00 0.00 71 1018.0
20260504043303 64 138 2.0 2.0 0.00 0.00 0.00 70 1017.9
20260504042801 64 150 2.0 3.0 0.00 0.00 0.00 70 1018.2
20260504042257 64 171 6.0 9.0 0.00 0.00 0.00 70 1018.0
20260504041753 64 158 3.0 5.0 0.00 0.00 0.00 70 1018.0
20260504041249 64 135 5.0 7.0 0.00 0.00 0.00 69 1018.0
20260504040745 63 155 5.0 7.0 0.00 0.00 0.00 70 1018.2
20260504040243 63 158 2.0 3.0 0.00 0.00 0.00 72 1018.0
20260504035739 62 151 0.0 0.0 0.00 0.00 0.00 74 1018.2
20260504035236 61 148 0.0 0.0 0.00 0.00 0.00 75 1018.2
20260504034734 61 141 0.0 0.0 0.00 0.00 0.00 77 1018.1
20260504034231 61 136 1.0 2.0 0.00 0.00 0.00 77 1018.1
20260504033728 61 138 2.0 2.0 0.00 0.00 0.00 76 1018.0
20260504033226 62 138 2.0 2.0 0.00 0.00 0.00 76 1018.1
20260504032723 62 145 1.0 2.0 0.00 0.00 0.00 75 1018.1
20260504032220 61 138 2.0 2.0 0.00 0.00 0.00 77 1018.1
20260504031716 62 135 2.0 3.0 0.00 0.00 0.00 77 1017.9
20260504031214 62 131 3.0 3.0 0.00 0.00 0.00 75 1017.8
20260504030704 62 137 2.0 2.0 0.00 0.00 0.00 75 1018.1
20260504030202 63 126 2.0 3.0 0.00 0.00 0.00 74 1018.1
20260504025658 63 134 2.0 3.0 0.00 0.00 0.00 72 1017.9
20260504025155 64 138 2.0 2.0 0.00 0.00 0.00 71 1018.0
20260504024652 65 134 3.0 3.0 0.00 0.00 0.00 68 1018.0
20260504024148 65 135 2.0 3.0 0.00 0.00 0.00 66 1018.1
20260504023645 66 134 2.0 2.0 0.00 0.00 0.00 66 1018.0
20260504023141 66 145 2.0 2.0 0.00 0.00 0.00 66 1018.1
20260504022637 66 143 2.0 3.0 0.00 0.00 0.00 65 1017.9
20260504022133 65 144 2.0 2.0 0.00 0.00 0.00 67 1017.8
20260504021632 65 135 2.0 2.0 0.00 0.00 0.00 68 1017.6
20260504021128 65 136 1.0 2.0 0.00 0.00 0.00 68 1017.6
20260504020625 65 141 2.0 2.0 0.00 0.00 0.00 67 1017.6
20260504020121 65 142 1.0 2.0 0.00 0.00 0.00 68 1017.5
20260504015618 65 143 2.0 3.0 0.00 0.00 0.00 68 1017.7
20260504015114 67 145 2.0 2.0 0.00 0.00 0.00 67 1017.5
20260504014610 68 135 2.0 3.0 0.00 0.00 0.00 62 1017.3
20260504014107 68 147 1.0 2.0 0.00 0.00 0.00 60 1017.5
20260504013605 68 141 2.0 2.0 0.00 0.00 0.00 59 1017.4
20260504013101 69 159 2.0 3.0 0.00 0.00 0.00 58 1017.3
20260504012559 69 150 1.0 2.0 0.00 0.00 0.00 58 1017.4
20260504012057 69 141 2.0 2.0 0.00 0.00 0.00 57 1017.3
20260504011554 69 146 2.0 3.0 0.00 0.00 0.00 56 1017.5
20260504011050 70 150 0.0 0.0 0.00 0.00 0.00 56 1017.4
20260504010545 70 144 2.0 2.0 0.00 0.00 0.00 55 1017.3
20260504010042 70 148 1.0 2.0 0.00 0.00 0.00 56 1017.4
20260504005538 71 156 2.0 2.0 0.00 0.00 0.00 56 1017.4
20260504005036 71 149 1.0 2.0 0.00 0.00 0.00 54 1017.2
20260504004534 72 138 2.0 3.0 0.00 0.00 0.00 53 1017.1
20260504004030 72 153 2.0 2.0 0.00 0.00 0.00 52 1017.2
20260504003526 72 154 0.0 0.0 0.00 0.00 0.00 52 1017.2
20260504003023 73 153 0.0 0.0 0.00 0.00 0.00 52 1017.4
20260504002520 73 151 1.0 2.0 0.00 0.00 0.00 50 1017.4
20260504002018 73 154 2.0 2.0 0.00 0.00 0.00 50 1017.6